Showing default

OPS 9323 (IDSCS 10), 2650

Orbit data source: Space-Track

OPS 9323 (IDSCS 10), 2650 is a payload satellite owned by USAF SSD (US) in GEO that was launched on Wed, 18 Jan 1967 UTC via a TITAN IIIC launch vehicle from the Air Force Eastern Test Range (AFETR). Payload-class satellites include a variety of spacecraft equipped with specific instruments for various scientific and technological missions. These include communications satellites like Starlink; space stations such as the ISS; scientific satellites like the Hubble; Earth observation satellites from companies like Planet Labs, Umbra, and HawkEye 360; GPS; miniature CubeSats for education and research; and military/defense satellites.

Not visible in the next 10 days
Identifier
2650, 1967-003C
Orbit
GEO
Last TLE update
12 hours ago
Origin
Manufacturer
Philco-Ford WDL
Mission
Non-operational Defense Communications
Bus & Motor
IDCSP, Unknown motor
Mass
45 kg wet, 45 kg dry
Launch date (UTC)
1967-01-18 (58 years ago)
Launch vehicle
TITAN IIIC
Launch site
Air Force Eastern Test Range (AFETR)
Object type
Payload
Rocket body
Debris
Shape & HBR
Ico Poly, 0.9 m
Radar Cross Section
0.926 m², Medium (>0.1 m² and < 1m²)

Expand to show TLE details & history

TLE from 12 hours ago
0 OPS 9323 (IDSCS 10)
1 02650U 67003C   25186.44993676 -.00000061  00000-0  00000-0 0  9997
2 02650   7.6413  47.8879 0034947 101.3814  76.5012  1.08221531136693
Epoch: 2025-07-05T10:47Z
TLE epoch observation values (Epoch: 2025-07-05T10:47:54.536Z)
Latitude
0.22432°
Longitude
140.51823°
Altitude
33,663.402 km
Speed
3.156 km/s
True Right ascension
15h 04m 43s
True Declination
0° 13' 27"
Sunlit
Object was in daylight at epoch
Visualization orbit readout
Latitude
1.92087°
Longitude
-23.39123°
Altitude
33,686.143 km
Speed
3.155 km/s
Apparent Right ascension
03h 42m 17s
Apparent Declination
-3° 47' 10"
Sunlit
Object is in daylight
Visualization observer readout
Local Sidereal Time
10:52:23
Azimuth
278.496° WNW
Elevation
-15.832°
Doppler factor
1
Orbital elements
Apogee altitude
33,836.702 km
Perigee altitude
33,556.603 km
Semi-major axis
40,074.79 km
Eccentricity
0.00349
Inclination
7.6413°
RAAN
47.8879°
Arg. of periapsis
101.3814°
True anomaly
Unknown
Mean anomaly
76.5012°
Eccentric anomaly
Unknown
Mean motion
0.27054 °/min
Orbital period
1,330.66 mins
BSTAR
0
Loading historical data...
2650 neighbors
Loading maneuver chart data...
Loading SW <> Apogee altitude chart data...
Loading historical data...
Loading historical data...
Loading historical data...
Loading historical data...
Loading historical data...
Loading historical data...
Loading historical data...

OPS 9323 (IDSCS 10) Visibility

Observer location: undefined°, undefined°

OPS 9323 (IDSCS 10) is likely not visible in the next few days
Span
Click to sort rows by Start time (UTC) header in descending order
Start Az.
Max El. time (UTC)
Max El. Az.
Max El.
End time (UTC)
End Az.
|